This demonstration page uses our WeatherBlox Daily Observations layout. Learn more.

Left ArrowRight Arrow

39.92423, -83.80882

Hourly Observations for February 13, 2021

Temp ( °F °C ) Dew Point ( °F °C ) Humidity (%) Winds ( mph kmh ) Pressure ( in mb ) Visibility ( mi km ) Precip ( " mm )
12:56 am 00:56 Cloudy 22 -5.6 19 -7.2 89 89 NE 9 15 30.27 1025 10 16 0.00 0.00
1:56 am 01:56 Cloudy 22 -5.6 19 -7.2 89 89 NE 12 19 30.25 1025 10 16 0.00 0.00
2:56 am 02:56 Cloudy 22 -5.6 19 -7.2 89 89 NE 12 19 30.24 1024 10 16 0.00 0.00
3:56 am 03:56 Cloudy 22 -5.6 19 -7.2 89 89 NNE 10 17 30.22 1023 10 16 0.00 0.00
4:56 am 04:56 Cloudy 21 -6.1 18 -7.8 88 88 NNE 12 19 30.20 1023 10 16 0.00 0.00
5:56 am 05:56 Cloudy 21 -6.1 18 -7.8 88 88 NE 10 17 30.19 1023 10 16 0.00 0.00
6:17 am 06:17 Cloudy 21 -6 18 -8 86 86 NNE 12 19 30.23 1024 10 16 0.00 0.00
6:36 am 06:36 Cloudy 21 -6 18 -8 86 86 NNE 10 17 30.24 1024 10 16 0.00 0.00
6:56 am 06:56 Cloudy 21 -6.1 17 -8.3 85 85 NNE 8 13 30.22 1023 10 16 0.00 0.00
7:56 am 07:56 Cloudy 21 -6.1 17 -8.3 85 85 NNE 10 17 30.20 1023 10 16 0.00 0.00
8:56 am 08:56 Cloudy 21 -6.1 17 -8.3 85 85 NNE 12 19 30.20 1023 10 16 0.00 0.00
9:56 am 09:56 Cloudy 22 -5.6 17 -8.3 82 82 NE 9 15 30.19 1022 10 16 0.00 0.00
10:56 am 10:56 Cloudy 22 -5.6 18 -7.8 85 85 NE 9 15 30.17 1022 10 16 0.00 0.00
11:56 am 11:56 Cloudy 23 -5 19 -7.2 85 85 NE 8 13 30.17 1022 10 16 0.00 0.00
12:56 pm 12:56 Cloudy 23 -5 20 -6.7 88 88 N 8 13 30.14 1021 9 14 0.00 0.00
1:49 pm 13:49 Cloudy 25 -4 19 -7 80 80 N 7 11 30.14 1021 10 16 0.00 0.00
1:56 pm 13:56 Cloudy 24 -4.4 20 -6.7 84 84 N 7 11 30.12 1020 9 14 0.00 0.00
2:48 pm 14:48 Cloudy 25 -4 19 -7 80 80 N 3 6 30.12 1020 10 16 0.00 0.00
2:56 pm 14:56 Cloudy 25 -3.9 20 -6.7 81 81 N 3 6 30.10 1019 10 16 0.00 0.00
3:56 pm 15:56 Cloudy 25 -3.9 21 -6.1 85 85 NNW 8 13 30.11 1020 10 16 0.00 0.00
4:56 pm 16:56 Cloudy 24 -4.4 21 -6.1 88 88 N 7 11 30.13 1020 9 14 0.00 0.00
5:56 pm 17:56 Cloudy with Light Snow 24 -4.4 22 -5.6 91 91 NNW 14 22 30.15 1021 5 8 0.00 0.00
6:13 pm 18:13 Cloudy with Mist and Fog 23 -5 21 -6 93 93 NNW 8 13 30.18 1022 5 8 0.00 0.00
6:34 pm 18:34 Cloudy 23 -5 21 -6 93 93 NNW 9 15 30.18 1022 10 16 0.00 0.00
6:52 pm 18:52 Cloudy 23 -5 23 -5 100 100 NNW 6 9 30.19 1022 10 16 0.00 0.00
6:56 pm 18:56 Cloudy 23 -5 23 -5 100 100 NNW 7 11 30.16 1021 9 14 0.00 0.00
7:10 pm 19:10 Cloudy 23 -5 23 -5 100 100 NNW 6 9 30.18 1022 7 11 0.00 0.00
7:56 pm 19:56 Cloudy 23 -5 23 -5 100 100 NNW 8 13 30.17 1022 9 14 0.00 0.00
8:56 pm 20:56 Cloudy 23 -5 22 -5.6 96 96 NNW 8 13 30.19 1022 10 16 0.00 0.00
9:10 pm 21:10 Cloudy 23 -5 21 -6 93 93 NNW 10 17 30.22 1023 10 16 0.00 0.00
9:56 pm 21:56 Cloudy 22 -5.6 22 -5.6 100 100 NW 9 15 30.21 1023 8 13 0.00 0.00
10:56 pm 22:56 Cloudy 22 -5.6 20 -6.7 92 92 NNW 9 15 30.23 1024 10 16 0.00 0.00
11:27 pm 23:27 Cloudy 21 -6 19 -7 93 93 NNW 12 19 30.26 1025 10 16 0.00 0.00
11:56 pm 23:56 Cloudy 21 -6.1 20 -6.7 96 96 N 9 15 30.24 1024 10 16 0.00 0.00

Powered by AerisWeather